| time (UTC) | temp C | wind direction | speed KPH | gust KPH | rain 1hr cm | rain 24hr cm | rain mn cm | humidity % | barometer mb |
| 20260906111005 | 26 | 140 | 3.2 | 14.5 | 0.00 | 0.00 | 0.00 | 49 | 1024.0 |
| 20260906110503 | 26 | 164 | 4.8 | 11.3 | 0.00 | 0.00 | 0.00 | 49 | 1024.0 |
| 20260906110004 | 26 | 178 | 4.8 | 14.5 | 0.00 | 0.00 | 0.00 | 50 | 1024.1 |
| 20260906105505 | 26 | 170 | 4.8 | 16.1 | 0.00 | 0.00 | 0.00 | 50 | 1024.1 |
| 20260906105003 | 26 | 189 | 4.8 | 16.1 | 0.00 | 0.00 | 0.00 | 50 | 1024.1 |
| 20260906104503 | 26 | 113 | 6.4 | 14.5 | 0.00 | 0.00 | 0.00 | 51 | 1024.1 |
| 20260906104005 | 26 | 96 | 4.8 | 17.7 | 0.00 | 0.00 | 0.00 | 50 | 1024.2 |
| 20260906103503 | 26 | 143 | 4.8 | 17.7 | 0.00 | 0.00 | 0.00 | 50 | 1024.2 |
| 20260906103003 | 26 | 164 | 6.4 | 12.9 | 0.00 | 0.00 | 0.00 | 50 | 1024.3 |
| 20260906102712 | 26 | 144 | 6.4 | 12.9 | 0.00 | 0.00 | 0.00 | 50 | 1024.2 |
| 20260906102003 | 26 | 129 | 4.8 | 19.3 | 0.00 | 0.00 | 0.00 | 50 | 1024.5 |
| 20260906101503 | 26 | 136 | 4.8 | 16.1 | 0.00 | 0.00 | 0.00 | 51 | 1024.5 |
| 20260906101005 | 25 | 130 | 4.8 | 11.3 | 0.00 | 0.00 | 0.00 | 52 | 1024.5 |
| 20260906100503 | 25 | 240 | 4.8 | 16.1 | 0.00 | 0.00 | 0.00 | 51 | 1024.5 |
| 20260906100004 | 25 | 203 | 4.8 | 16.1 | 0.00 | 0.00 | 0.00 | 52 | 1024.5 |
| 20260906095505 | 25 | 149 | 3.2 | 14.5 | 0.00 | 0.00 | 0.00 | 51 | 1024.5 |
| 20260906095003 | 25 | 139 | 4.8 | 14.5 | 0.00 | 0.00 | 0.00 | 51 | 1024.5 |
| 20260906094504 | 25 | 137 | 4.8 | 12.9 | 0.00 | 0.00 | 0.00 | 51 | 1024.5 |
| 20260906094005 | 25 | 132 | 6.4 | 16.1 | 0.00 | 0.00 | 0.00 | 52 | 1024.6 |
| 20260906093503 | 25 | 145 | 8.0 | 16.1 | 0.00 | 0.00 | 0.00 | 52 | 1024.6 |
| 20260906093003 | 25 | 131 | 6.4 | 17.7 | 0.00 | 0.00 | 0.00 | 53 | 1024.7 |
| 20260906092505 | 25 | 115 | 6.4 | 17.7 | 0.00 | 0.00 | 0.00 | 53 | 1024.7 |
| 20260906092003 | 25 | 88 | 4.8 | 17.7 | 0.00 | 0.00 | 0.00 | 53 | 1024.7 |
| 20260906091503 | 25 | 74 | 4.8 | 14.5 | 0.00 | 0.00 | 0.00 | 57 | 1024.7 |
| 20260906091005 | 25 | 98 | 6.4 | 9.7 | 0.00 | 0.00 | 0.00 | 57 | 1024.8 |
| 20260906090710 | 24 | 120 | 6.4 | 19.3 | 0.00 | 0.00 | 0.00 | 57 | 1024.9 |
| 20260906090211 | 24 | 120 | 8.0 | 19.3 | 0.00 | 0.00 | 0.00 | 54 | 1024.8 |
| 20260906085505 | 24 | 105 | 4.8 | 19.3 | 0.00 | 0.00 | 0.00 | 55 | 1025.0 |
| 20260906085003 | 24 | 118 | 3.2 | 19.3 | 0.00 | 0.00 | 0.00 | 56 | 1024.9 |
| 20260906084711 | 24 | 152 | 3.2 | 14.5 | 0.00 | 0.00 | 0.00 | 58 | 1025.1 |
| 20260906084005 | 24 | 115 | 4.8 | 12.9 | 0.00 | 0.00 | 0.00 | 58 | 1025.0 |
| 20260906083711 | 24 | 129 | 6.4 | 12.9 | 0.00 | 0.00 | 0.00 | 57 | 1025.1 |
| 20260906083003 | 23 | 155 | 6.4 | 16.1 | 0.00 | 0.00 | 0.00 | 58 | 1025.2 |
| 20260906082505 | 23 | 157 | 6.4 | 22.5 | 0.00 | 0.00 | 0.00 | 57 | 1025.3 |
| 20260906082003 | 23 | 142 | 6.4 | 22.5 | 0.00 | 0.00 | 0.00 | 58 | 1025.2 |
| 20260906081503 | 23 | 125 | 6.4 | 16.1 | 0.00 | 0.00 | 0.00 | 58 | 1025.2 |
| 20260906081005 | 23 | 133 | 6.4 | 17.7 | 0.00 | 0.00 | 0.00 | 59 | 1025.2 |
| 20260906080503 | 23 | 128 | 4.8 | 17.7 | 0.00 | 0.00 | 0.00 | 58 | 1025.1 |
| 20260906080004 | 23 | 127 | 4.8 | 12.9 | 0.00 | 0.00 | 0.00 | 58 | 1025.2 |
| 20260906075505 | 23 | 102 | 4.8 | 11.3 | 0.00 | 0.00 | 0.00 | 60 | 1025.0 |
| 20260906075003 | 23 | 56 | 4.8 | 16.1 | 0.00 | 0.00 | 0.00 | 64 | 1024.9 |
| 20260906074503 | 23 | 63 | 6.4 | 16.1 | 0.00 | 0.00 | 0.00 | 63 | 1024.9 |
| 20260906074005 | 23 | 95 | 4.8 | 16.1 | 0.00 | 0.00 | 0.00 | 65 | 1024.8 |
| 20260906073503 | 23 | 98 | 4.8 | 16.1 | 0.00 | 0.00 | 0.00 | 65 | 1024.9 |
| 20260906073211 | 23 | 85 | 4.8 | 12.9 | 0.00 | 0.00 | 0.00 | 66 | 1024.9 |
| 20260906072712 | 22 | 79 | 4.8 | 17.7 | 0.00 | 0.00 | 0.00 | 67 | 1024.9 |
| 20260906072003 | 22 | 94 | 6.4 | 17.7 | 0.00 | 0.00 | 0.00 | 67 | 1025.0 |
| 20260906071503 | 22 | 102 | 8.0 | 14.5 | 0.00 | 0.00 | 0.00 | 67 | 1024.8 |
| 20260906071005 | 22 | 103 | 8.0 | 14.5 | 0.00 | 0.00 | 0.00 | 69 | 1024.8 |
| 20260906070503 | 22 | 103 | 6.4 | 14.5 | 0.00 | 0.00 | 0.00 | 70 | 1024.8 |
| 20260906070004 | 21 | 104 | 4.8 | 14.5 | 0.00 | 0.00 | 0.00 | 73 | 1024.8 |
| 20260906065712 | 21 | 96 | 3.2 | 14.5 | 0.00 | 0.00 | 0.00 | 73 | 1024.7 |
| 20260906065003 | 20 | 65 | 1.6 | 9.7 | 0.00 | 0.00 | 0.00 | 77 | 1024.7 |
| 20260906064503 | 20 | 46 | 1.6 | 6.4 | 0.00 | 0.00 | 0.00 | 78 | 1024.7 |
| 20260906064005 | 20 | 342 | 1.6 | 4.8 | 0.00 | 0.00 | 0.00 | 80 | 1024.8 |
| 20260906063503 | 19 | 342 | 1.6 | 4.8 | 0.00 | 0.00 | 0.00 | 79 | 1024.7 |
| 20260906063003 | 19 | 342 | 0.0 | 4.8 | 0.00 | 0.00 | 0.00 | 79 | 1024.7 |
| 20260906062505 | 18 | 342 | 0.0 | 4.8 | 0.00 | 0.00 | 0.00 | 81 | 1024.8 |
| 20260906062003 | 18 | 342 | 0.0 | 4.8 | 0.00 | 0.00 | 0.00 | 82 | 1024.7 |
| 20260906061503 | 18 | 331 | 0.0 | 1.6 | 0.00 | 0.00 | 0.00 | 85 | 1024.6 |
| 20260906060503 | 17 | 331 | 0.0 | 1.6 | 0.00 | 0.00 | 0.00 | 85 | 1024.5 |
| 20260906060004 | 17 | 331 | 0.0 | 1.6 | 0.00 | 0.00 | 0.00 | 85 | 1024.4 |
| 20260906055505 | 17 | 331 | 0.0 | 1.6 | 0.00 | 0.00 | 0.00 | 86 | 1024.5 |
| 20260906055210 | 17 | 331 | 0.0 | 1.6 | 0.00 | 0.00 | 0.00 | 86 | 1024.3 |
| 20260906054503 | 17 | 0 | 0.0 | 0.0 | 0.00 | 0.00 | 0.00 | 86 | 1024.2 |
| 20260906054005 | 17 | 0 | 0.0 | 0.0 | 0.00 | 0.00 | 0.00 | 86 | 1024.2 |
| 20260906053710 | 17 | 0 | 0.0 | 0.0 | 0.00 | 0.00 | 0.00 | 86 | 1024.2 |
| 20260906053003 | 17 | 0 | 0.0 | 0.0 | 0.00 | 0.00 | 0.00 | 86 | 1024.2 |
| 20260906052505 | 17 | 0 | 0.0 | 0.0 | 0.00 | 0.00 | 0.00 | 86 | 1024.1 |
| 20260906052003 | 17 | 0 | 0.0 | 0.0 | 0.00 | 0.00 | 0.00 | 85 | 1024.0 |
| 20260906051503 | 17 | 0 | 0.0 | 0.0 | 0.00 | 0.00 | 0.00 | 85 | 1023.9 |
| 20260906051005 | 17 | 331 | 0.0 | 1.6 | 0.00 | 0.00 | 0.00 | 85 | 1024.0 |
| 20260906050503 | 17 | 331 | 0.0 | 3.2 | 0.00 | 0.00 | 0.00 | 85 | 1024.0 |
| 20260906050004 | 17 | 331 | 0.0 | 3.2 | 0.00 | 0.00 | 0.00 | 85 | 1024.0 |
| 20260906045505 | 17 | 331 | 0.0 | 3.2 | 0.00 | 0.00 | 0.00 | 86 | 1024.0 |
| 20260906045003 | 17 | 331 | 0.0 | 3.2 | 0.00 | 0.00 | 0.00 | 86 | 1024.0 |
| 20260906044503 | 17 | 331 | 0.0 | 1.6 | 0.00 | 0.00 | 0.00 | 85 | 1023.9 |
| 20260906044005 | 17 | 0 | 0.0 | 0.0 | 0.00 | 0.00 | 0.00 | 86 | 1023.9 |
| 20260906043711 | 17 | 0 | 0.0 | 0.0 | 0.00 | 0.00 | 0.00 | 85 | 1023.9 |
| 20260906043003 | 17 | 0 | 0.0 | 0.0 | 0.00 | 0.00 | 0.00 | 86 | 1023.8 |
| 20260906042505 | 17 | 0 | 0.0 | 0.0 | 0.00 | 0.00 | 0.00 | 85 | 1023.7 |
| 20260906042003 | 17 | 0 | 0.0 | 0.0 | 0.00 | 0.00 | 0.00 | 85 | 1023.8 |
| 20260906041711 | 17 | 0 | 0.0 | 0.0 | 0.00 | 0.00 | 0.00 | 86 | 1023.7 |
| 20260906041212 | 17 | 0 | 0.0 | 0.0 | 0.00 | 0.00 | 0.00 | 86 | 1023.7 |
| 20260906040503 | 17 | 0 | 0.0 | 0.0 | 0.00 | 0.00 | 0.00 | 86 | 1023.6 |
| 20260906040004 | 17 | 0 | 0.0 | 0.0 | 0.00 | 0.00 | 0.00 | 85 | 1023.6 |
| 20260906035505 | 17 | 0 | 0.0 | 0.0 | 0.00 | 0.00 | 0.00 | 86 | 1023.6 |
| 20260906035003 | 17 | 0 | 0.0 | 0.0 | 0.00 | 0.00 | 0.00 | 85 | 1023.6 |
| 20260906034504 | 17 | 0 | 0.0 | 0.0 | 0.00 | 0.00 | 0.00 | 85 | 1023.5 |
| 20260906034005 | 17 | 331 | 0.0 | 1.6 | 0.00 | 0.00 | 0.00 | 84 | 1023.5 |
| 20260906033504 | 17 | 331 | 0.0 | 1.6 | 0.00 | 0.00 | 0.00 | 84 | 1023.4 |
| 20260906033003 | 17 | 331 | 0.0 | 1.6 | 0.00 | 0.00 | 0.00 | 84 | 1023.4 |
| 20260906032505 | 17 | 0 | 0.0 | 0.0 | 0.00 | 0.00 | 0.00 | 84 | 1023.4 |
| 20260906032003 | 17 | 0 | 0.0 | 0.0 | 0.00 | 0.00 | 0.00 | 84 | 1023.2 |
| 20260906031503 | 17 | 0 | 0.0 | 0.0 | 0.00 | 0.00 | 0.00 | 84 | 1023.3 |
| 20260906031005 | 17 | 0 | 0.0 | 0.0 | 0.00 | 0.00 | 0.00 | 84 | 1023.2 |
| 20260906030503 | 17 | 331 | 0.0 | 1.6 | 0.00 | 0.00 | 0.00 | 83 | 1023.2 |
| 20260906030004 | 17 | 331 | 0.0 | 1.6 | 0.00 | 0.00 | 0.00 | 83 | 1023.2 |
| 20260906025712 | 17 | 331 | 0.0 | 1.6 | 0.00 | 0.00 | 0.00 | 83 | 1023.2 |
| 20260906025211 | 17 | 0 | 0.0 | 0.0 | 0.00 | 0.00 | 0.00 | 82 | 1023.3 |
| 20260906024503 | 17 | 331 | 0.0 | 1.6 | 0.00 | 0.00 | 0.00 | 82 | 1023.1 |
| 20260906024003 | 17 | 331 | 0.0 | 4.8 | 0.00 | 0.00 | 0.00 | 83 | 1023.1 |
| 20260906023712 | 17 | 331 | 0.0 | 4.8 | 0.00 | 0.00 | 0.00 | 83 | 1023.1 |
| 20260906023003 | 17 | 331 | 0.0 | 3.2 | 0.00 | 0.00 | 0.00 | 82 | 1023.0 |
| 20260906022503 | 17 | 331 | 0.0 | 3.2 | 0.00 | 0.00 | 0.00 | 82 | 1023.1 |
| 20260906022005 | 18 | 331 | 0.0 | 3.2 | 0.00 | 0.00 | 0.00 | 82 | 1023.1 |
| 20260906021503 | 18 | 331 | 0.0 | 1.6 | 0.00 | 0.00 | 0.00 | 82 | 1023.0 |
| 20260906021003 | 18 | 331 | 0.0 | 1.6 | 0.00 | 0.00 | 0.00 | 82 | 1022.9 |
| 20260906020505 | 18 | 331 | 0.0 | 1.6 | 0.00 | 0.00 | 0.00 | 82 | 1023.0 |
| 20260906020004 | 18 | 331 | 0.0 | 1.6 | 0.00 | 0.00 | 0.00 | 82 | 1023.0 |
| 20260906015503 | 18 | 0 | 0.0 | 0.0 | 0.00 | 0.00 | 0.00 | 81 | 1023.0 |
| 20260906015005 | 18 | 331 | 0.0 | 1.6 | 0.00 | 0.00 | 0.00 | 81 | 1022.9 |
| 20260906014503 | 18 | 331 | 0.0 | 1.6 | 0.00 | 0.00 | 0.00 | 82 | 1022.9 |
| 20260906014003 | 18 | 0 | 0.0 | 0.0 | 0.00 | 0.00 | 0.00 | 82 | 1022.9 |
| 20260906013505 | 18 | 0 | 0.0 | 0.0 | 0.00 | 0.00 | 0.00 | 82 | 1022.9 |
| 20260906013003 | 18 | 0 | 0.0 | 0.0 | 0.00 | 0.00 | 0.00 | 81 | 1022.8 |
| 20260906012503 | 18 | 0 | 0.0 | 0.0 | 0.00 | 0.00 | 0.00 | 82 | 1022.7 |
| 20260906012005 | 18 | 0 | 0.0 | 0.0 | 0.00 | 0.00 | 0.00 | 81 | 1022.7 |
| 20260906011711 | 18 | 0 | 0.0 | 0.0 | 0.00 | 0.00 | 0.00 | 81 | 1022.7 |
| 20260906011003 | 18 | 331 | 1.6 | 3.2 | 0.00 | 0.00 | 0.00 | 82 | 1022.8 |
| 20260906010712 | 18 | 331 | 1.6 | 3.2 | 0.00 | 0.00 | 0.00 | 82 | 1022.8 |
| 20260906010004 | 18 | 331 | 0.0 | 3.2 | 0.00 | 0.00 | 0.00 | 82 | 1022.7 |
| 20260906005503 | 18 | 331 | 0.0 | 3.2 | 0.00 | 0.00 | 0.00 | 82 | 1022.6 |
| 20260906005005 | 18 | 331 | 0.0 | 3.2 | 0.00 | 0.00 | 0.00 | 81 | 1022.6 |
| 20260906004503 | 18 | 0 | 0.0 | 0.0 | 0.00 | 0.00 | 0.00 | 81 | 1022.7 |
| 20260906004003 | 17 | 0 | 0.0 | 0.0 | 0.00 | 0.00 | 0.00 | 81 | 1022.5 |
| 20260906003505 | 17 | 331 | 1.6 | 3.2 | 0.00 | 0.00 | 0.00 | 81 | 1022.6 |
| 20260906003003 | 17 | 331 | 1.6 | 4.8 | 0.00 | 0.00 | 0.00 | 81 | 1022.6 |
| 20260906002503 | 17 | 331 | 1.6 | 4.8 | 0.00 | 0.00 | 0.00 | 82 | 1022.4 |
| 20260906002005 | 17 | 331 | 0.0 | 3.2 | 0.00 | 0.00 | 0.00 | 82 | 1022.4 |
| 20260906001711 | 17 | 331 | 0.0 | 3.2 | 0.00 | 0.00 | 0.00 | 82 | 1022.5 |
| 20260906001003 | 17 | 0 | 0.0 | 0.0 | 0.00 | 0.00 | 0.00 | 81 | 1022.4 |
| 20260906000712 | 17 | 0 | 0.0 | 0.0 | 0.00 | 0.00 | 0.00 | 81 | 1022.4 |
| 20260906000004 | 17 | 331 | 1.6 | 3.2 | 0.00 | 0.00 | 0.00 | 81 | 1022.2 |
| 20260905235503 | 17 | 331 | 1.6 | 4.8 | 0.00 | 0.00 | 0.00 | 82 | 1022.0 |
| 20260905235005 | 17 | 331 | 0.0 | 4.8 | 0.00 | 0.00 | 0.00 | 81 | 1022.0 |
| 20260905234711 | 17 | 331 | 0.0 | 4.8 | 0.00 | 0.00 | 0.00 | 81 | 1022.0 |
| 20260905234210 | 18 | 331 | 0.0 | 1.6 | 0.00 | 0.00 | 0.00 | 81 | 1022.1 |
| 20260905233505 | 18 | 0 | 0.0 | 0.0 | 0.00 | 0.00 | 0.00 | 79 | 1022.0 |
| 20260905233003 | 18 | 0 | 0.0 | 0.0 | 0.00 | 0.00 | 0.00 | 79 | 1021.9 |
| 20260905232503 | 18 | 0 | 0.0 | 0.0 | 0.00 | 0.00 | 0.00 | 79 | 1021.8 |
| 20260905232005 | 18 | 331 | 0.0 | 1.6 | 0.00 | 0.00 | 0.00 | 79 | 1021.8 |
| 20260905231503 | 18 | 331 | 0.0 | 1.6 | 0.00 | 0.00 | 0.00 | 79 | 1021.9 |
| 20260905231003 | 18 | 331 | 0.0 | 1.6 | 0.00 | 0.00 | 0.00 | 79 | 1021.8 |
| 20260905230505 | 18 | 0 | 0.0 | 0.0 | 0.00 | 0.00 | 0.00 | 78 | 1021.9 |
| 20260905230211 | 18 | 0 | 0.0 | 0.0 | 0.00 | 0.00 | 0.00 | 78 | 1021.9 |
| 20260905225711 | 18 | 331 | 0.0 | 3.2 | 0.00 | 0.00 | 0.00 | 78 | 1021.9 |
| 20260905225212 | 18 | 331 | 0.0 | 3.2 | 0.00 | 0.00 | 0.00 | 78 | 1021.9 |
| 20260905224503 | 18 | 331 | 0.0 | 1.6 | 0.00 | 0.00 | 0.00 | 77 | 1021.8 |
| 20260905224003 | 18 | 0 | 0.0 | 0.0 | 0.00 | 0.00 | 0.00 | 78 | 1021.9 |
| 20260905223505 | 18 | 331 | 0.0 | 3.2 | 0.00 | 0.00 | 0.00 | 77 | 1021.8 |
| 20260905223210 | 18 | 331 | 0.0 | 3.2 | 0.00 | 0.00 | 0.00 | 77 | 1021.7 |
| 20260905222503 | 19 | 0 | 0.0 | 0.0 | 0.00 | 0.00 | 0.00 | 77 | 1021.7 |
| 20260905222005 | 19 | 331 | 0.0 | 1.6 | 0.00 | 0.00 | 0.00 | 77 | 1021.7 |
| 20260905221503 | 19 | 331 | 0.0 | 1.6 | 0.00 | 0.00 | 0.00 | 77 | 1021.7 |
| 20260905221003 | 19 | 331 | 0.0 | 1.6 | 0.00 | 0.00 | 0.00 | 77 | 1021.8 |
| 20260905220503 | 19 | 331 | 0.0 | 1.6 | 0.00 | 0.00 | 0.00 | 77 | 1021.6 |
| 20260905220122 | 19 | 0 | 0.0 | 0.0 | 0.00 | 0.00 | 0.00 | 77 | 1021.7 |
| 20260905215503 | 19 | 331 | 0.0 | 4.8 | 0.00 | 0.00 | 0.00 | 76 | 1021.6 |
| 20260905215212 | 19 | 331 | 0.0 | 4.8 | 0.00 | 0.00 | 0.00 | 76 | 1021.6 |
| 20260905214503 | 19 | 331 | 0.0 | 1.6 | 0.00 | 0.00 | 0.00 | 76 | 1021.5 |
| 20260905214003 | 19 | 331 | 0.0 | 1.6 | 0.00 | 0.00 | 0.00 | 76 | 1021.4 |
| 20260905213505 | 19 | 331 | 0.0 | 3.2 | 0.00 | 0.00 | 0.00 | 76 | 1021.5 |
| 20260905213003 | 19 | 331 | 0.0 | 3.2 | 0.00 | 0.00 | 0.00 | 76 | 1021.4 |
| 20260905212711 | 19 | 331 | 0.0 | 3.2 | 0.00 | 0.00 | 0.00 | 77 | 1021.4 |
| 20260905212005 | 19 | 0 | 0.0 | 0.0 | 0.00 | 0.00 | 0.00 | 75 | 1021.3 |
| 20260905211503 | 19 | 0 | 0.0 | 0.0 | 0.00 | 0.00 | 0.00 | 76 | 1021.2 |
| 20260905211210 | 19 | 331 | 0.0 | 3.2 | 0.00 | 0.00 | 0.00 | 76 | 1021.1 |
| 20260905210505 | 19 | 331 | 0.0 | 3.2 | 0.00 | 0.00 | 0.00 | 75 | 1021.3 |
| 20260905210004 | 19 | 331 | 0.0 | 1.6 | 0.00 | 0.00 | 0.00 | 75 | 1021.1 |
| 20260905205503 | 19 | 331 | 0.0 | 1.6 | 0.00 | 0.00 | 0.00 | 76 | 1021.0 |
| 20260905205212 | 19 | 331 | 0.0 | 1.6 | 0.00 | 0.00 | 0.00 | 76 | 1020.9 |
| 20260905204503 | 19 | 0 | 0.0 | 0.0 | 0.00 | 0.00 | 0.00 | 76 | 1020.9 |
| 20260905204003 | 19 | 0 | 0.0 | 0.0 | 0.00 | 0.00 | 0.00 | 74 | 1021.0 |
| 20260905203505 | 19 | 0 | 0.0 | 0.0 | 0.00 | 0.00 | 0.00 | 75 | 1020.9 |
| 20260905203210 | 19 | 0 | 0.0 | 0.0 | 0.00 | 0.00 | 0.00 | 75 | 1020.9 |
| 20260905202503 | 20 | 0 | 0.0 | 0.0 | 0.00 | 0.00 | 0.00 | 74 | 1020.8 |
| 20260905202006 | 20 | 0 | 0.0 | 0.0 | 0.00 | 0.00 | 0.00 | 74 | 1020.7 |
| 20260905201503 | 20 | 0 | 0.0 | 0.0 | 0.00 | 0.00 | 0.00 | 74 | 1020.8 |
| 20260905201003 | 20 | 0 | 0.0 | 0.0 | 0.00 | 0.00 | 0.00 | 73 | 1020.7 |
| 20260905200712 | 20 | 0 | 0.0 | 0.0 | 0.00 | 0.00 | 0.00 | 73 | 1020.7 |
| 20260905200211 | 20 | 0 | 0.0 | 0.0 | 0.00 | 0.00 | 0.00 | 72 | 1020.6 |
| 20260905195505 | 20 | 0 | 0.0 | 0.0 | 0.00 | 0.00 | 0.00 | 73 | 1020.4 |
| 20260905195004 | 20 | 331 | 1.6 | 3.2 | 0.00 | 0.00 | 0.00 | 72 | 1020.3 |
| 20260905194503 | 20 | 331 | 1.6 | 4.8 | 0.00 | 0.00 | 0.00 | 72 | 1020.4 |
| 20260905194005 | 20 | 325 | 1.6 | 6.4 | 0.00 | 0.00 | 0.00 | 72 | 1020.4 |
| 20260905193503 | 21 | 321 | 1.6 | 6.4 | 0.00 | 0.00 | 0.00 | 72 | 1020.4 |
| 20260905193003 | 21 | 319 | 1.6 | 6.4 | 0.00 | 0.00 | 0.00 | 72 | 1020.3 |
| 20260905192505 | 21 | 320 | 1.6 | 4.8 | 0.00 | 0.00 | 0.00 | 70 | 1020.3 |
| 20260905192003 | 21 | 325 | 1.6 | 4.8 | 0.00 | 0.00 | 0.00 | 71 | 1020.3 |
| 20260905191503 | 21 | 326 | 1.6 | 4.8 | 0.00 | 0.00 | 0.00 | 70 | 1020.4 |
| 20260905191005 | 21 | 324 | 0.0 | 4.8 | 0.00 | 0.00 | 0.00 | 69 | 1020.2 |
| 20260905190503 | 21 | 322 | 0.0 | 4.8 | 0.00 | 0.00 | 0.00 | 70 | 1020.0 |
| 20260905190004 | 22 | 322 | 0.0 | 1.6 | 0.00 | 0.00 | 0.00 | 68 | 1020.0 |
| 20260905185712 | 22 | 322 | 0.0 | 1.6 | 0.00 | 0.00 | 0.00 | 68 | 1020.0 |
| 20260905185003 | 22 | 322 | 0.0 | 1.6 | 0.00 | 0.00 | 0.00 | 68 | 1020.0 |
| 20260905184503 | 22 | 322 | 0.0 | 3.2 | 0.00 | 0.00 | 0.00 | 68 | 1019.9 |
| 20260905184005 | 22 | 322 | 0.0 | 4.8 | 0.00 | 0.00 | 0.00 | 68 | 1019.9 |
| 20260905183711 | 22 | 322 | 0.0 | 4.8 | 0.00 | 0.00 | 0.00 | 68 | 1019.8 |
| 20260905183003 | 22 | 322 | 1.6 | 1.6 | 0.00 | 0.00 | 0.00 | 66 | 1019.7 |
| 20260905182712 | 22 | 322 | 1.6 | 6.4 | 0.00 | 0.00 | 0.00 | 66 | 1019.6 |
| 20260905182003 | 22 | 322 | 0.0 | 6.4 | 0.00 | 0.00 | 0.00 | 67 | 1019.4 |
| 20260905181503 | 23 | 322 | 0.0 | 3.2 | 0.00 | 0.00 | 0.00 | 67 | 1019.2 |
| 20260905181005 | 23 | 322 | 1.6 | 1.6 | 0.00 | 0.00 | 0.00 | 65 | 1019.1 |
| 20260905180503 | 23 | 322 | 3.2 | 6.4 | 0.00 | 0.00 | 0.00 | 65 | 1019.1 |
| 20260905180004 | 23 | 326 | 3.2 | 6.4 | 0.00 | 0.00 | 0.00 | 64 | 1019.0 |
| 20260905175505 | 23 | 328 | 3.2 | 6.4 | 0.00 | 0.00 | 0.00 | 63 | 1019.0 |
| 20260905175003 | 24 | 331 | 3.2 | 8.0 | 0.00 | 0.00 | 0.00 | 62 | 1018.7 |
| 20260905174503 | 24 | 346 | 1.6 | 8.0 | 0.00 | 0.00 | 0.00 | 61 | 1018.7 |
| 20260905174005 | 24 | 9 | 0.0 | 4.8 | 0.00 | 0.00 | 0.00 | 60 | 1018.7 |
| 20260905173503 | 24 | 103 | 0.0 | 3.2 | 0.00 | 0.00 | 0.00 | 58 | 1018.5 |
| 20260905173003 | 24 | 103 | 0.0 | 3.2 | 0.00 | 0.00 | 0.00 | 56 | 1018.5 |
| 20260905172712 | 25 | 103 | 0.0 | 4.8 | 0.00 | 0.00 | 0.00 | 56 | 1018.5 |
| 20260905172003 | 25 | 103 | 1.6 | 4.8 | 0.00 | 0.00 | 0.00 | 56 | 1018.6 |
| 20260905171503 | 25 | 107 | 1.6 | 3.2 | 0.00 | 0.00 | 0.00 | 56 | 1018.6 |
| 20260905171005 | 25 | 110 | 3.2 | 8.0 | 0.00 | 0.00 | 0.00 | 55 | 1018.6 |
| 20260905170503 | 25 | 109 | 1.6 | 8.0 | 0.00 | 0.00 | 0.00 | 55 | 1018.6 |
| 20260905170004 | 25 | 100 | 1.6 | 4.8 | 0.00 | 0.00 | 0.00 | 55 | 1018.5 |
| 20260905165505 | 25 | 88 | 3.2 | 6.4 | 0.00 | 0.00 | 0.00 | 55 | 1018.4 |
| 20260905165003 | 25 | 101 | 3.2 | 9.7 | 0.00 | 0.00 | 0.00 | 55 | 1018.4 |
| 20260905164503 | 25 | 106 | 3.2 | 9.7 | 0.00 | 0.00 | 0.00 | 55 | 1018.3 |
| 20260905164005 | 25 | 100 | 3.2 | 11.3 | 0.00 | 0.00 | 0.00 | 54 | 1018.3 |
| 20260905163503 | 25 | 101 | 3.2 | 11.3 | 0.00 | 0.00 | 0.00 | 54 | 1018.2 |
| 20260905163003 | 25 | 85 | 3.2 | 11.3 | 0.00 | 0.00 | 0.00 | 53 | 1018.1 |
| 20260905162505 | 26 | 60 | 3.2 | 9.7 | 0.00 | 0.00 | 0.00 | 52 | 1018.1 |
| 20260905162003 | 26 | 71 | 3.2 | 8.0 | 0.00 | 0.00 | 0.00 | 52 | 1018.1 |
| 20260905161503 | 26 | 67 | 3.2 | 11.3 | 0.00 | 0.00 | 0.00 | 52 | 1018.1 |
| 20260905161005 | 26 | 68 | 3.2 | 11.3 | 0.00 | 0.00 | 0.00 | 51 | 1018.0 |
| 20260905160507 | 26 | 72 | 3.2 | 9.7 | 0.00 | 0.00 | 0.00 | 51 | 1018.1 |
| 20260905160006 | 26 | 77 | 3.2 | 14.5 | 0.00 | 0.00 | 0.00 | 50 | 1018.0 |
| 20260905155511 | 26 | 85 | 3.2 | 14.5 | 0.00 | 0.00 | 0.00 | 49 | 1017.9 |
| 20260905155003 | 26 | 60 | 4.8 | 14.5 | 0.00 | 0.00 | 0.00 | 49 | 1017.9 |
| 20260905154506 | 27 | 45 | 4.8 | 16.1 | 0.00 | 0.00 | 0.00 | 49 | 1017.8 |
| 20260905154003 | 27 | 51 | 4.8 | 16.1 | 0.00 | 0.00 | 0.00 | 49 | 1017.5 |
| 20260905153503 | 27 | 50 | 4.8 | 12.9 | 0.00 | 0.00 | 0.00 | 49 | 1017.5 |
| 20260905153006 | 27 | 56 | 4.8 | 17.7 | 0.00 | 0.00 | 0.00 | 48 | 1017.6 |
| 20260905152503 | 27 | 68 | 4.8 | 17.7 | 0.00 | 0.00 | 0.00 | 48 | 1017.7 |
| 20260905152003 | 27 | 77 | 6.4 | 16.1 | 0.00 | 0.00 | 0.00 | 49 | 1017.6 |
| 20260905151505 | 27 | 77 | 8.0 | 17.7 | 0.00 | 0.00 | 0.00 | 48 | 1017.6 |
| 20260905151210 | 27 | 77 | 8.0 | 17.7 | 0.00 | 0.00 | 0.00 | 48 | 1017.6 |
| 20260905150503 | 27 | 66 | 6.4 | 20.9 | 0.00 | 0.00 | 0.00 | 48 | 1017.6 |
| 20260905150005 | 27 | 69 | 4.8 | 22.5 | 0.00 | 0.00 | 0.00 | 48 | 1017.7 |
| 20260905145503 | 27 | 64 | 4.8 | 22.5 | 0.00 | 0.00 | 0.00 | 48 | 1017.5 |
| 20260905145003 | 27 | 75 | 6.4 | 14.5 | 0.00 | 0.00 | 0.00 | 49 | 1017.6 |
| 20260905144505 | 27 | 70 | 8.0 | 20.9 | 0.00 | 0.00 | 0.00 | 48 | 1017.7 |
| 20260905144003 | 27 | 66 | 6.4 | 24.1 | 0.00 | 0.00 | 0.00 | 48 | 1017.6 |
| 20260905143503 | 27 | 74 | 6.4 | 24.1 | 0.00 | 0.00 | 0.00 | 47 | 1017.8 |
| 20260905143005 | 27 | 72 | 6.4 | 19.3 | 0.00 | 0.00 | 0.00 | 48 | 1017.7 |
| 20260905142710 | 27 | 73 | 6.4 | 19.3 | 0.00 | 0.00 | 0.00 | 48 | 1017.7 |
| 20260905142003 | 27 | 65 | 6.4 | 19.3 | 0.00 | 0.00 | 0.00 | 47 | 1017.7 |
| 20260905141505 | 27 | 33 | 6.4 | 19.3 | 0.00 | 0.00 | 0.00 | 47 | 1017.7 |
| 20260905141003 | 27 | 31 | 6.4 | 19.3 | 0.00 | 0.00 | 0.00 | 47 | 1017.6 |
| 20260905140503 | 27 | 50 | 6.4 | 19.3 | 0.00 | 0.00 | 0.00 | 47 | 1017.6 |
| 20260905140005 | 27 | 57 | 6.4 | 19.3 | 0.00 | 0.00 | 0.00 | 47 | 1017.7 |
| 20260905135503 | 27 | 50 | 6.4 | 17.7 | 0.00 | 0.00 | 0.00 | 47 | 1017.8 |
| 20260905135003 | 27 | 44 | 6.4 | 19.3 | 0.00 | 0.00 | 0.00 | 46 | 1017.8 |
| 20260905134505 | 27 | 48 | 6.4 | 19.3 | 0.00 | 0.00 | 0.00 | 47 | 1017.8 |
| 20260905134003 | 27 | 58 | 8.0 | 22.5 | 0.00 | 0.00 | 0.00 | 46 | 1017.7 |
| 20260905133503 | 27 | 65 | 6.4 | 22.5 | 0.00 | 0.00 | 0.00 | 47 | 1017.7 |
| 20260905133005 | 28 | 66 | 4.8 | 17.7 | 0.00 | 0.00 | 0.00 | 47 | 1017.7 |
| 20260905132711 | 28 | 49 | 4.8 | 17.7 | 0.00 | 0.00 | 0.00 | 46 | 1017.8 |
| 20260905132003 | 28 | 43 | 4.8 | 20.9 | 0.00 | 0.00 | 0.00 | 46 | 1017.6 |
| 20260905131505 | 28 | 70 | 4.8 | 20.9 | 0.00 | 0.00 | 0.00 | 46 | 1017.6 |
| 20260905131211 | 28 | 71 | 4.8 | 17.7 | 0.00 | 0.00 | 0.00 | 46 | 1017.6 |
| 20260905130503 | 28 | 53 | 6.4 | 17.7 | 0.00 | 0.00 | 0.00 | 47 | 1017.5 |
| 20260905130005 | 28 | 61 | 9.7 | 17.7 | 0.00 | 0.00 | 0.00 | 46 | 1017.5 |
| 20260905125503 | 28 | 66 | 11.3 | 22.5 | 0.00 | 0.00 | 0.00 | 47 | 1017.6 |
| 20260905125003 | 28 | 63 | 9.7 | 25.7 | 0.00 | 0.00 | 0.00 | 46 | 1017.5 |
| 20260905124505 | 28 | 59 | 8.0 | 25.7 | 0.00 | 0.00 | 0.00 | 45 | 1017.6 |
| 20260905124003 | 28 | 70 | 8.0 | 20.9 | 0.00 | 0.00 | 0.00 | 46 | 1017.6 |
| 20260905123503 | 28 | 69 | 8.0 | 20.9 | 0.00 | 0.00 | 0.00 | 47 | 1017.4 |
| 20260905123005 | 28 | 74 | 8.0 | 25.7 | 0.00 | 0.00 | 0.00 | 47 | 1017.4 |
| 20260905122503 | 27 | 77 | 9.7 | 25.7 | 0.00 | 0.00 | 0.00 | 46 | 1017.5 |
| 20260905122213 | 27 | 77 | 9.7 | 25.7 | 0.00 | 0.00 | 0.00 | 47 | 1017.4 |
| 20260905121505 | 27 | 91 | 11.3 | 27.4 | 0.00 | 0.00 | 0.00 | 47 | 1017.4 |
| 20260905121003 | 27 | 91 | 9.7 | 27.4 | 0.00 | 0.00 | 0.00 | 47 | 1017.4 |
| 20260905120503 | 27 | 92 | 8.0 | 24.1 | 0.00 | 0.00 | 0.00 | 47 | 1017.4 |
| 20260905120212 | 27 | 94 | 9.7 | 24.1 | 0.00 | 0.00 | 0.00 | 48 | 1017.3 |
| 20260905115503 | 27 | 96 | 11.3 | 24.1 | 0.00 | 0.00 | 0.00 | 48 | 1017.3 |
| 20260905115210 | 27 | 96 | 9.7 | 24.1 | 0.00 | 0.00 | 0.00 | 48 | 1017.3 |
| 20260905114505 | 27 | 94 | 9.7 | 24.1 | 0.00 | 0.00 | 0.00 | 47 | 1017.4 |
| 20260905114003 | 27 | 105 | 11.3 | 20.9 | 0.00 | 0.00 | 0.00 | 47 | 1017.4 |
| 20260905113716 | 27 | 114 | 11.3 | 22.5 | 0.00 | 0.00 | 0.00 | 48 | 1017.3 |
| 20260905113212 | 28 | 110 | 9.7 | 22.5 | 0.00 | 0.00 | 0.00 | 47 | 1017.3 |
| 20260905112503 | 27 | 95 | 9.7 | 25.7 | 0.00 | 0.00 | 0.00 | 48 | 1017.3 |
| 20260905112210 | 27 | 93 | 9.7 | 25.7 | 0.00 | 0.00 | 0.00 | 47 | 1017.3 |
| 20260905111505 | 27 | 106 | 9.7 | 22.5 | 0.00 | 0.00 | 0.00 | 50 | 1017.2 |